Weather in Vladimir

Russia / Vladimir Oblast     56°07′44″N   40°24′23″E
temp.,
°C
wind,
m/s
gust,
m/s
humid.,
%
clouds,
%
prec.,
mm/h
press.,
hPa
HPBL,
m
24 september, fri
fri2400:00+8sse2697100 0.0 1010183
03:00+8sse2697100 0.0 1009203
06:00+8sse3796100 0.0 1008291
09:00+9s598231 0.0 1008727
12:00+10s5974100 0.0 10081142
15:00+10sse497499 0.0 1007885
18:00+8sse488083 0.0 1008308
21:00+6se37905 0.0 1008149
25 september, sat
sat2500:00+7se3882100 0.0 1008250
03:00+7se259113 0.0 1008118
06:00+7se3783100 0.0 1008161
09:00+9sse3873100 0.0 1009395
12:00+11sse3570100 0.0 1009483
15:00+13s356282 0.0 1008865
18:00+9sse338166 0.0 100931
21:00+9s2685100 0.1 1008144
26 september, sun
sun2600:00+9s2685100 0.1 1007173
03:00+8sse2688100 0.1 1007182
06:00+8sse3690100 0.3 1006226
09:00+8ese2493100 0.8 1006173
12:00+8ese2495100 1.3 1006279
15:00+10nne2385100 2.3 1008307
18:00+9ne489090 0.3 1010332
21:00+8nne41093100 0.4 1012371
27 september, mon
mon2700:00+8nne499373 0.3 1014377
03:00+6n4109568 0.3 1016254
06:00+7n41095100 0.0 1017400
09:00+7n4994100 0.0 1018532
12:00+8n5993100 0.2 1020566
15:00+9nne4890100 0.3 1021633
18:00+8nne4991100 0.0 1023511
21:00+8nne4994100 0.0 1025552
28 september, tue
tue2800:00+8ne4894100 0.1 1026532
03:00+6ne479298 0.2 1028441
06:00+6ne379249 0.0 1029433
09:00+7ene46795 0.0 1031463
12:00+10ene455725 0.0 10311046
15:00+11ne33505 0.0 10311166
18:00+7ne336620 0.0 103245
21:00+5ne227666 0.0 103325